| time (UTC) | temp F | wind direction | speed MPH | gust MPH | rain 1hr in | rain 24hr in | rain mn in | humidity % | barometer mb |
| 20260505113019 | 38 | 360 | 0.0 | 0.0 | 0.00 | 0.00 | 0.00 | 76 | 1010.5 |
| 20260505111519 | 38 | 360 | 0.0 | 0.0 | 0.00 | 0.00 | 0.00 | 75 | 1010.1 |
| 20260505101510 | 39 | 360 | 0.0 | 0.0 | 0.00 | 0.00 | 0.00 | 72 | 1008.8 |
| 20260505100011 | 39 | 360 | 0.0 | 0.0 | 0.00 | 0.00 | 0.00 | 72 | 1009.1 |
| 20260505094507 | 39 | 360 | 0.0 | 0.0 | 0.00 | 0.00 | 0.00 | 71 | 1009.3 |
| 20260505093006 | 40 | 360 | 0.0 | 0.0 | 0.00 | 0.00 | 0.00 | 69 | 1009.3 |
| 20260505091503 | 41 | 360 | 0.0 | 0.0 | 0.00 | 0.00 | 0.00 | 65 | 1008.8 |
| 20260505090110 | 42 | 360 | 0.0 | 0.0 | 0.00 | 0.00 | 0.00 | 63 | 1008.5 |
| 20260505084554 | 43 | 360 | 0.0 | 1.0 | 0.00 | 0.00 | 0.00 | 60 | 1008.2 |
| 20260505083103 | 44 | 360 | 0.0 | 2.0 | 0.00 | 0.00 | 0.00 | 59 | 1008.0 |
| 20260505081551 | 45 | 15 | 1.0 | 4.0 | 0.00 | 0.00 | 0.00 | 57 | 1007.5 |
| 20260505080053 | 46 | 41 | 2.0 | 5.0 | 0.00 | 0.00 | 0.00 | 56 | 1007.9 |
| 20260505074544 | 46 | 14 | 1.0 | 4.0 | 0.00 | 0.00 | 0.00 | 55 | 1008.1 |
| 20260505073053 | 46 | 22 | 2.0 | 5.0 | 0.00 | 0.00 | 0.00 | 54 | 1007.8 |
| 20260505071541 | 47 | 15 | 2.0 | 8.0 | 0.00 | 0.00 | 0.00 | 53 | 1007.8 |
| 20260505070049 | 47 | 5 | 5.0 | 11.0 | 0.00 | 0.00 | 0.00 | 52 | 1007.7 |
| 20260505064534 | 48 | 28 | 5.0 | 10.0 | 0.00 | 0.00 | 0.00 | 51 | 1007.8 |
| 20260505063034 | 49 | 28 | 5.0 | 10.0 | 0.00 | 0.00 | 0.00 | 50 | 1007.8 |
| 20260505061530 | 49 | 18 | 7.0 | 13.0 | 0.00 | 0.00 | 0.00 | 48 | 1007.8 |
| 20260505060029 | 49 | 31 | 5.0 | 16.0 | 0.00 | 0.00 | 0.00 | 49 | 1007.6 |
| 20260505054524 | 50 | 335 | 10.0 | 18.0 | 0.00 | 0.00 | 0.00 | 49 | 1007.3 |
| 20260505053022 | 50 | 20 | 9.0 | 17.0 | 0.00 | 0.00 | 0.00 | 49 | 1007.0 |
| 20260505051523 | 51 | 37 | 10.0 | 17.0 | 0.00 | 0.00 | 0.00 | 49 | 1006.5 |
| 20260505041526 | 52 | 11 | 7.0 | 17.0 | 0.00 | 0.00 | 0.00 | 49 | 1006.4 |
| 20260505040012 | 53 | 20 | 8.0 | 19.0 | 0.00 | 0.00 | 0.00 | 49 | 1006.4 |
| 20260505034510 | 53 | 346 | 8.0 | 18.0 | 0.00 | 0.00 | 0.00 | 50 | 1006.1 |
| 20260505033009 | 54 | 41 | 9.0 | 16.0 | 0.00 | 0.00 | 0.00 | 49 | 1006.0 |
| 20260505031508 | 55 | 11 | 11.0 | 18.0 | 0.00 | 0.00 | 0.00 | 47 | 1005.8 |
| 20260505030009 | 57 | 332 | 10.0 | 17.0 | 0.00 | 0.00 | 0.00 | 46 | 1005.4 |
| 20260505024508 | 57 | 34 | 7.0 | 15.0 | 0.00 | 0.00 | 0.00 | 44 | 1004.7 |
| 20260505023007 | 57 | 34 | 6.0 | 12.0 | 0.00 | 0.00 | 0.00 | 42 | 1004.1 |
| 20260505021508 | 57 | 45 | 3.0 | 9.0 | 0.00 | 0.00 | 0.00 | 42 | 1004.0 |
| 20260505020006 | 58 | 282 | 8.0 | 16.0 | 0.00 | 0.00 | 0.00 | 41 | 1003.6 |
| 20260505014506 | 58 | 352 | 6.0 | 15.0 | 0.00 | 0.00 | 0.00 | 41 | 1003.3 |
| 20260505013005 | 59 | 8 | 7.0 | 14.0 | 0.00 | 0.00 | 0.00 | 40 | 1002.9 |
| 20260505011508 | 59 | 8 | 8.0 | 15.0 | 0.00 | 0.00 | 0.00 | 40 | 1002.4 |
| 20260505010003 | 60 | 60 | 10.0 | 17.0 | 0.00 | 0.00 | 0.00 | 39 | 1002.6 |
| 20260505004502 | 61 | 353 | 8.0 | 18.0 | 0.00 | 0.00 | 0.00 | 39 | 1002.1 |
| 20260505003002 | 62 | 29 | 9.0 | 15.0 | 0.00 | 0.00 | 0.00 | 37 | 1002.0 |
| 20260505001501 | 63 | 357 | 10.0 | 19.0 | 0.00 | 0.00 | 0.00 | 34 | 1001.9 |
| 20260505000138 | 65 | 27 | 10.0 | 20.0 | 0.00 | 0.00 | 0.00 | 34 | 1001.7 |
| 20260504234614 | 66 | 19 | 11.0 | 17.0 | 0.00 | 0.00 | 0.00 | 33 | 1001.5 |
| 20260504233108 | 67 | 8 | 9.0 | 17.0 | 0.00 | 0.00 | 0.00 | 34 | 1001.5 |
| 20260504231558 | 68 | 210 | 10.0 | 17.0 | 0.00 | 0.00 | 0.00 | 35 | 1001.4 |
| 20260504230058 | 69 | 6 | 13.0 | 22.0 | 0.00 | 0.00 | 0.00 | 35 | 1000.9 |
| 20260504224609 | 71 | 7 | 9.0 | 20.0 | 0.00 | 0.00 | 0.00 | 34 | 1000.6 |
| 20260504223056 | 72 | 350 | 10.0 | 21.0 | 0.00 | 0.00 | 0.00 | 33 | 1000.3 |
| 20260504221557 | 72 | 324 | 11.0 | 24.0 | 0.00 | 0.00 | 0.00 | 35 | 1000.0 |
| 20260504220058 | 73 | 46 | 10.0 | 20.0 | 0.00 | 0.00 | 0.00 | 33 | 999.8 |
| 20260504214553 | 75 | 309 | 7.0 | 19.0 | 0.00 | 0.00 | 0.00 | 33 | 999.6 |
| 20260504213123 | 75 | 72 | 11.0 | 20.0 | 0.00 | 0.00 | 0.00 | 32 | 999.3 |
| 20260504211555 | 76 | 357 | 12.0 | 20.0 | 0.00 | 0.00 | 0.00 | 32 | 999.2 |
| 20260504210050 | 77 | 27 | 13.0 | 20.0 | 0.00 | 0.00 | 0.00 | 34 | 999.0 |
| 20260504204553 | 78 | 20 | 8.0 | 20.0 | 0.00 | 0.00 | 0.00 | 37 | 999.0 |
| 20260504203104 | 78 | 358 | 11.0 | 17.0 | 0.00 | 0.00 | 0.00 | 37 | 998.8 |
| 20260504201548 | 79 | 54 | 10.0 | 18.0 | 0.00 | 0.00 | 0.00 | 38 | 998.6 |
| 20260504200051 | 79 | 288 | 5.0 | 16.0 | 0.00 | 0.00 | 0.00 | 38 | 998.6 |
| 20260504194559 | 80 | 319 | 4.0 | 12.0 | 0.00 | 0.00 | 0.00 | 36 | 998.6 |
| 20260504193147 | 79 | 319 | 2.0 | 11.0 | 0.00 | 0.00 | 0.00 | 38 | 998.5 |
| 20260504191544 | 81 | 250 | 3.0 | 12.0 | 0.00 | 0.00 | 0.00 | 35 | 998.6 |
| 20260504190043 | 80 | 223 | 5.0 | 13.0 | 0.00 | 0.00 | 0.00 | 36 | 998.7 |
| 20260504184541 | 79 | 286 | 7.0 | 12.0 | 0.00 | 0.00 | 0.00 | 35 | 998.7 |
| 20260504183039 | 80 | 239 | 5.0 | 14.0 | 0.00 | 0.00 | 0.00 | 34 | 999.0 |
| 20260504181536 | 79 | 265 | 5.0 | 14.0 | 0.00 | 0.00 | 0.00 | 37 | 998.9 |
| 20260504180036 | 78 | 248 | 4.0 | 14.0 | 0.00 | 0.00 | 0.00 | 36 | 999.0 |
| 20260504174534 | 78 | 340 | 5.0 | 13.0 | 0.00 | 0.00 | 0.00 | 36 | 999.1 |
| 20260504173042 | 78 | 251 | 3.0 | 13.0 | 0.00 | 0.00 | 0.00 | 38 | 999.1 |
| 20260504171532 | 78 | 127 | 4.0 | 13.0 | 0.00 | 0.00 | 0.00 | 36 | 999.3 |
| 20260504140106 | 66 | 236 | 5.0 | 11.0 | 0.00 | 0.00 | 0.00 | 48 | 1001.5 |